SCP
0 0 0 0 0 -0 0 0 0 0 0 0 0 0 0 0 0 0 0 0 0 0 0 0 0 0 0 0 0 0 0 0 0 0 0 0 0 0 0 0 0 0 0 0 0 0 0 0 0 0 0 0 0 0
0 0 0 0 0 -0 0 0 0 0 0 0 0 0 0 0 0 0 0 0 0 0 0 0 0 0 -0 -0 -0 -0 0 0 0 0 0 0 0 0 0 0 0 0 0 0 0 0 0 0 0 0 0 0 0 0
0 0 0 0 0 0 -0 0 0 0 0 0 0 0 0 0 -0 0 0 0 0 0 0 0 -0 0 0 -0 -0 0 -0 -0 0 0 0 0 0 0 0 0 0 0 0 0 0 0 0 0 0 0 0 0 0 0
0 -0 0 0 0 0 0 0 0 0 0 0 0 0 0 -0 0 0 0 0 0 0 0 0 0 0 0 0 -0 0 0 0 0 0 0 0 0 0 0 0 0 0 0 0 0 0 0 0 0 0 0 0 0 0
0 -0 0 0 0 0 0 0 0 0 0 0 0 0 0 -0 -0 0 0 0 0 0 0 0 0 0 -0 0 0 0 0 0 0 0 0 0 0 0 0 0 0 0 0 0 0 0 0 0 0 0 0 0 0 0
-0 -0 -0 0 0 0 0 0 0 0 0 0 0 0 0 0 0 0 0 0 0 0 0 0 0 0 0 0 0 0 0 0 0 0 0 0 0 0 0 0 0 0 0 0 0 0 0 0 0 0 0 0 0 0
-0 -0 0 0 0 0 0 0 0 0 0 0 0 0 0 0 0 0 0 0 0 0 0 0 -0 0 0 0 0 0 0 0 0 0 0 0 0 0 0 0 0 0 0 0 0 0 0 0 0 0 0 0 0 0
0 0 0 -0 0 0 0 0 0 0 0 0 -0 0 0 0 0 0 0 0 0 0 0 0 0 0 0 0 -0 0 0 0 0 0 0 0 0 0 0 0 0 0 0 0 0 0 0 0 0 0 0 0 0 0
0 0 0 0 0 0 0 0 0 0 0 0 0 0 0 0 0 0 0 0 0 0 0 0 0 0 0 0 0 0 0 0 0 0 0 0 0 0 -0 0 0 -0 0 0 0 0 0 0 0 0 0 0 0 0
0 0 -0 0 0 0 0 0 0 0 -0 0 0 0 0 0 0 0 0 0 0 0 0 0 0 0 0 0 0 0 0 0 0 -0 0 0 0 0 0 0 0 0 0 0 0 0 0 0 0 0 0 0 0 0
0 0 0 0 0 0 0 0 0 0 0 0 0 0 0 0 0 0 0 0 0 0 -0 -0 0 0 0 0 0 0 0 0 0 -0 0 0 0 0 0 0 0 0 0 0 0 0 0 0 0 0 0 0 0 0
0 0 0 0 0 0 0 0 0 0 0 -0 0 0 0 0 0 0 0 0 0 0 0 0 0 0 0 0 0 0 0 0 0 0 0 -0 -0 -0 -0 0 0 0 0 0 0 0 0 0 0 0 0 0 0 0
0 -0 0 0 0 0 0 0 -0 0 0 0 0 0 0 0 0 0 0 0 0 0 0 0 0 0 0 0 0 0 0 0 0 -0 -0 -0 -0 0 0 0 -0 -0 0 0 0 0 0 0 0 0 0 0 0 0
0 0 0 0 0 0 0 0 0 -0 0 0 0 0 0 0 0 0 0 0 0 0 0 0 0 0 0 0 0 0 0 0 0 -0 -0 -0 -0 -0 0 0 0 -0 -0 0 0 0 0 0 0 0 0 0 0 0
0 0 0 0 0 0 0 0 0 0 0 0 0 0 0 0 -0 0 -0 0 -0 -0 0 0 0 0 0 0 0 0 0 0 -0 -0 0 0 0 -0 0 0 0 0 0 -0 0 0 0 0 0 0 0 0 0 0
0 0 0 0 0 0 0 0 0 0 0 0 0 0 0 -0 0 -0 -0 0 -0 0 0 0 0 0 0 0 0 0 0 0 0 0 0 0 -0 0 0 0 0 0 0 0 0 -0 -0 -0 -0 0 0 0 0 0
0 -0 0 -0 -0 0 0 0 0 0 0 0 -0 0 0 0 0 0 -0 -0 -0 0 0 0 0 0 0 0 0 0 0 0 0 0 0 0 -0 0 0 0 0 0 0 0 0 0 0 0 0 0 0 0 0 0
-0 -0 -0 -0 0 0 0 0 0 0 0 -0 -0 -0 0 0 0 0 -0 -0 -0 -0 -0 0 0 0 0 0 0 0 0 0 0 0 0 0 0 0 0 0 0 0 0 0 0 0 0 0 0 0 0 0 0 0
-0 -0 -0 -0 0 0 0 -0 0 0 -0 -0 0 -0 -0 -0 0 0 0 -0 -0 -0 0 0 0 0 0 0 0 0 0 0 0 0 0 0 0 0 0 0 0 0 0 0 0 0 0 0 0 0 0 0 0 0
-0 -0 0 -0 -0 0 0 0 0 0 -0 -0 0 0 0 -0 -0 -0 -0 -0 0 0 0 0 0 0 0 0 0 0 0 0 0 0 0 0 0 0 0 0 0 0 0 0 0 0 0 0 0 0 0 0 0 0
-0 -0 0 0 0 0 0 0 0 0 0 -0 0 0 0 -0 -0 -0 0 0 0 0 0 0 0 0 -0 -0 0 0 0 0 0 0 0 0 0 0 0 0 0 0 0 0 0 0 0 0 0 0 0 0 0 0
0 0 0 0 0 0 0 0 0 0 0 0 0 0 0 -0 0 0 0 0 0 0 0 0 0 0 0 0 -0 -0 -0 0 0 0 0 0 0 0 0 0 0 0 0 0 0 0 0 0 0 0 0 0 0 0
0 0 0 0 0 0 0 0 0 0 0 0 0 0 0 0 0 0 0 0 0 0 0 0 0 0 0 0 0 0 -0 -0 0 0 0 0 0 0 0 0 -0 0 0 0 0 0 0 0 0 0 0 0 0 0
0 0 0 0 0 0 0 0 0 0 0 0 0 0 0 0 0 0 0 0 0 0 0 0 0 0 0 0 0 0 0 0 0 0 0 0 0 0 0 0 0 0 0 0 0 0 0 0 0 0 0 0 0 0
0 0 0 0 0 0 0 0 0 0 0 0 0 0 0 0 0 0 0 0 0 0 0 0 0 0 0 0 0 0 0 0 0 0 0 0 0 0 0 0 0 -0 -0 0 0 0 0 0 0 0 0 0 0 0
0 0 0 0 0 0 0 0 0 0 0 0 0 0 0 0 0 0 0 -0 -0 0 0 0 0 0 0 0 0 0 0 0 -0 0 0 0 0 0 0 0 0 0 -0 0 0 0 0 0 0 0 0 0 0 0
0 0 0 0 0 0 0 0 0 0 -0 -0 0 0 0 0 0 0 0 0 0 0 0 0 0 0 0 0 0 0 0 0 -0 -0 0 0 0 0 0 0 0 0 0 0 0 0 0 0 0 0 0 0 0 0
0 -0 0 0 0 0 -0 -0 -0 0 -0 0 0 0 0 0 0 0 0 0 -0 0 0 0 0 0 0 0 0 0 0 0 0 0 0 0 0 0 0 0 0 -0 0 0 0 0 0 0 0 0 0 0 0 0
0 0 0 0 0 0 0 -0 -0 0 0 0 0 0 0 0 0 0 0 0 0 0 0 0 0 0 0 0 0 0 0 0 0 0 0 0 0 0 0 0 0 0 0 0 0 0 0 0 0 0 0 0 0 0
-0 -0 0 0 0 0 0 0 0 0 0 0 0 0 0 0 -0 -0 -0 -0 -0 -0 0 0 0 0 0 0 0 0 0 0 0 0 0 0 0 0 0 0 0 0 0 0 0 0 0 0 0 0 0 0 0 0
0 0 -0 -0 -0 0 0 0 0 0 0 0 0 0 0 -0 -0 -0 -0 0 0 -0 -0 -0 -0 -0 0 0 0 0 0 0 0 0 0 0 0 0 0 0 0 0 0 0 0 0 0 0 0 0 0 0 0 0
0 0 0 0 -0 -0 0 0 0 0 0 0 0 0 0 0 -0 0 0 0 -0 0 0 0 0 0 0 0 0 0 0 0 0 0 0 0 0 0 0 0 0 0 0 0 0 0 0 0 0 0 0 0 0 0
0 0 0 -0 0 0 0 0 0 0 0 0 -0 0 0 0 -0 0 0 -0 0 -0 -0 -0 0 0 0 0 0 0 0 0 0 0 0 0 0 0 0 0 0 0 0 0 0 0 0 0 0 0 0 0 0 0
Wind_Speed_500mb
66 67 70 71 65 65 40 28 27 25 26 28 33 34 38 44 49 51 64 61 63 24 36 40 51 45 36 21 6 8 19 15 10 12 13 10 12 31 19 10 15 17 15 9 5 7 11 22 16 18 15 5 19 42
67 68 66 68 59 58 46 29 26 24 27 35 33 35 38 43 47 45 59 61 64 49 25 22 47 63 67 67 35 36 11 14 14 6 6 6 8 9 26 17 2 9 15 15 18 13 5 54 6 31 8 12 17 39
67 67 66 64 59 53 44 32 32 30 30 34 38 39 40 44 45 51 52 49 52 43 27 43 51 68 58 68 67 19 23 26 17 21 7 8 9 6 20 28 9 7 5 9 10 13 14 39 51 36 15 11 17 29
68 66 63 62 55 49 42 37 32 27 31 36 40 37 40 42 45 43 42 41 44 11 6 18 17 32 30 42 67 76 63 29 30 20 7 3 5 10 11 7 23 10 19 12 6 4 5 15 57 43 42 21 21 31
67 64 60 59 52 46 42 38 34 30 35 40 39 34 39 41 33 34 35 38 40 29 5 10 28 40 36 41 50 66 59 47 24 6 5 8 7 3 0 3 6 13 14 23 17 24 20 25 75 56 56 48 35 41
62 59 56 56 49 42 37 35 33 32 40 39 34 35 36 32 24 22 11 35 45 46 8 5 14 20 34 35 49 67 69 53 33 18 8 12 13 12 6 10 8 48 37 53 15 53 63 53 34 67 63 62 44 43
54 54 54 51 43 37 33 33 33 37 35 33 31 31 33 24 24 26 12 3 19 55 9 5 8 11 23 26 45 46 55 35 27 7 11 6 18 10 4 8 6 37 62 48 53 54 43 64 42 39 45 66 60 47
49 47 47 46 34 31 31 31 31 29 29 29 27 26 21 19 22 33 40 31 19 38 16 6 7 5 17 13 13 35 25 36 22 15 7 5 10 8 12 9 57 59 40 52 55 57 45 60 62 54 49 62 70 55
43 44 45 39 26 25 28 28 27 27 25 20 27 26 15 15 15 26 20 26 31 17 6 5 2 6 14 10 12 22 27 11 18 10 9 13 10 12 17 19 31 49 51 37 51 60 37 31 51 52 44 49 54 76
41 40 39 25 25 26 23 23 22 19 16 22 24 12 11 13 21 14 18 8 10 15 16 6 9 5 11 5 4 3 3 8 9 9 16 7 8 62 32 52 56 55 52 68 33 42 52 31 37 52 46 44 48 53
34 30 20 22 22 19 18 16 16 13 13 9 7 12 12 13 18 11 9 8 9 7 16 15 41 9 20 6 4 4 3 2 8 9 14 9 11 39 55 48 43 69 74 82 73 71 65 74 66 47 48 42 43 44
29 28 25 22 18 16 13 9 11 12 6 6 14 24 17 12 8 4 6 5 7 9 8 8 12 28 17 14 6 7 5 6 7 8 6 7 7 32 63 82 88 58 45 69 76 78 70 60 64 59 52 47 46 40
25 23 20 19 18 16 15 12 9 7 6 12 7 7 10 10 9 11 12 6 5 8 15 12 7 18 11 10 6 9 9 11 1 7 8 9 11 31 52 80 95 110 85 67 63 60 60 57 50 54 55 53 53 49
23 22 23 22 18 16 17 12 9 3 5 4 4 8 6 4 8 8 8 6 5 8 27 25 12 6 8 9 7 8 7 4 7 9 10 7 22 30 19 48 70 95 119 94 82 75 68 65 59 54 54 51 47 47
27 27 25 25 23 20 19 15 14 9 4 4 5 8 8 8 12 14 16 13 17 11 20 14 10 16 7 8 7 6 6 10 11 7 5 2 27 27 12 16 29 62 72 81 77 63 58 61 62 58 55 56 59 56
27 26 29 27 25 23 20 20 11 10 6 7 11 6 11 4 6 5 17 30 27 30 28 18 8 10 9 6 10 11 7 10 6 7 14 30 37 33 20 16 23 24 39 56 69 86 101 102 98 99 99 94 76 58
27 36 34 34 28 22 23 22 12 10 13 9 9 22 19 17 15 18 18 21 17 12 6 6 13 10 7 6 7 7 8 5 4 19 31 33 29 30 23 15 20 26 31 38 48 54 63 68 65 68 77 87 94 95
42 39 33 32 27 36 40 24 19 12 14 19 8 8 19 24 16 23 24 25 14 10 6 8 10 8 8 9 6 5 7 11 11 19 30 33 31 29 20 18 14 24 30 34 39 41 42 49 51 60 68 73 71 77
45 43 45 45 45 47 20 30 21 11 22 11 21 28 21 21 26 29 38 38 28 26 9 7 5 6 5 5 4 4 0 11 20 30 26 22 27 36 27 17 10 13 21 30 38 36 32 38 48 51 55 59 64 76
63 68 67 66 60 23 15 8 31 9 7 16 18 14 11 11 9 11 16 12 6 3 2 5 6 5 13 7 11 6 7 14 22 31 34 31 33 34 34 26 12 6 4 13 25 28 26 33 38 41 50 56 53 69
34 28 33 62 46 18 12 18 15 15 10 12 8 13 7 8 11 7 6 6 4 3 3 5 5 11 10 12 4 4 9 20 22 23 30 39 38 32 27 25 13 10 5 9 15 21 22 27 33 37 43 49 54 62
52 53 53 28 10 9 8 11 7 18 12 5 9 9 4 3 4 4 5 3 5 7 8 5 8 12 14 13 7 12 15 18 19 19 17 24 32 29 23 19 13 7 3 4 12 19 25 27 30 36 40 45 54 64
34 23 11 9 10 8 8 19 6 13 7 6 9 3 3 2 2 5 4 9 13 17 18 21 22 21 24 26 21 15 13 15 12 11 11 17 24 18 13 11 7 7 1 4 11 19 26 31 32 34 40 49 59 65
22 5 7 7 8 5 9 3 4 5 4 4 5 3 4 3 3 3 5 6 16 21 23 21 19 23 24 24 21 15 15 15 14 15 12 14 21 19 8 6 6 7 3 10 15 22 29 35 40 44 48 57 64 70
7 2 4 5 4 6 6 4 2 3 1 2 5 6 4 5 3 6 7 8 22 24 18 18 18 18 22 26 28 25 19 21 19 20 12 13 19 25 11 3 3 14 9 5 16 24 32 38 42 47 54 60 68 73
5 2 5 6 4 7 9 7 8 9 5 7 4 3 5 2 2 9 6 14 30 23 16 14 14 15 18 21 25 23 17 14 17 20 13 14 16 24 20 6 3 6 13 3 8 23 31 39 44 49 54 59 64 69
6 5 5 3 7 8 6 3 8 4 8 9 7 8 4 2 8 7 10 22 21 20 11 6 1 6 11 15 21 23 22 21 18 17 15 18 18 17 23 16 3 4 6 4 6 18 28 38 45 50 56 57 59 63
3 8 8 12 6 6 7 7 10 11 7 10 11 10 10 11 8 8 8 8 25 18 9 5 10 18 23 22 25 25 26 29 25 27 25 25 24 16 11 10 13 14 5 6 5 16 25 32 42 47 51 55 60 61
3 7 10 4 5 2 7 10 8 10 12 20 9 7 8 13 15 11 7 11 27 27 30 34 38 36 30 24 30 33 33 34 34 36 34 32 35 25 12 7 6 17 25 14 13 15 22 29 38 43 46 51 55 59
5 9 4 3 4 6 6 14 5 7 14 20 13 12 20 34 39 34 38 42 49 57 60 59 54 47 39 34 36 35 34 38 43 46 42 38 41 35 20 7 5 14 26 29 27 27 32 37 39 39 41 49 55 57
6 7 2 4 5 7 7 10 16 20 23 24 33 36 39 36 55 58 55 55 59 60 58 54 49 40 36 40 43 40 37 38 45 49 47 42 37 35 31 20 9 10 23 32 36 37 39 41 42 46 50 57 62 62
9 7 3 4 6 6 18 5 4 6 6 8 9 12 8 8 11 11 11 18 19 28 34 32 35 33 35 38 42 43 40 39 42 49 49 46 43 35 31 24 16 15 21 31 34 35 38 44 48 49 53 58 61 62
7 7 7 6 4 6 5 8 4 6 5 5 7 5 7 8 9 6 8 13 21 17 18 23 26 28 31 34 39 36 35 37 32 31 43 39 43 42 35 28 16 13 21 31 40 43 46 49 53 54 55 56 59 58
Wind_Direction_500mb
301 302 302 305 301 293 268 251 259 261 266 272 270 271 270 263 257 250 249 243 228 232 250 232 234 235 243 201 238 292 203 176 179 170 195 176 190 213 210 171 170 160 151 174 121 123 238 154 115 169 216 204 177 178
299 299 300 301 298 293 284 260 258 263 273 269 279 281 276 274 262 253 252 248 241 230 248 242 253 247 244 234 228 235 264 332 171 175 214 216 223 164 198 212 41 185 191 174 181 190 233 184 184 191 186 181 187 182
295 295 294 298 296 291 297 259 257 255 269 281 282 282 281 273 263 254 246 241 236 223 248 246 252 258 261 241 229 220 211 202 250 208 187 225 222 152 188 214 136 241 176 164 125 209 221 200 214 206 212 200 195 184
291 290 289 294 292 285 279 267 265 275 278 277 280 281 283 273 265 250 243 240 239 229 240 260 268 247 258 237 234 231 233 228 215 286 227 232 237 202 218 163 204 174 144 160 268 280 66 236 219 215 213 207 184 176
285 286 286 290 290 280 273 263 261 271 274 274 279 278 278 274 261 246 246 242 239 222 272 279 277 256 258 229 220 222 213 215 224 273 214 219 245 222 219 101 207 189 171 188 208 179 175 222 223 216 214 212 194 181
281 283 282 286 283 274 265 260 260 269 268 273 277 277 276 257 252 246 246 247 228 227 243 253 267 264 230 229 219 219 220 226 218 188 212 227 246 216 216 231 248 196 202 200 184 199 211 225 233 227 215 210 197 190
277 278 280 282 276 263 258 260 265 266 269 275 274 276 261 248 234 213 211 186 208 209 222 249 263 258 229 197 213 209 223 224 207 217 228 215 200 190 258 231 252 210 213 210 203 196 208 220 221 227 223 216 210 201
274 274 278 280 264 251 255 263 266 266 266 273 270 273 262 245 240 244 237 236 267 186 189 223 253 289 196 189 196 191 189 206 215 208 221 185 199 180 236 198 244 260 265 233 214 210 223 229 227 225 226 211 201 193
270 272 277 265 246 253 257 260 260 259 258 273 269 264 236 230 225 246 260 248 250 236 283 189 218 243 189 209 218 179 192 192 196 199 197 198 190 210 223 188 212 241 234 244 227 224 219 218 218 208 209 194 199 207
270 264 272 244 249 253 256 260 263 259 256 271 255 211 209 202 206 187 176 206 215 192 210 208 193 258 171 203 296 128 209 194 196 214 148 200 249 238 203 211 220 232 247 241 222 221 214 203 202 200 200 197 202 204
266 273 228 243 251 253 256 257 250 237 248 266 227 209 199 179 172 188 194 180 199 207 207 216 193 185 207 147 210 271 204 162 218 195 185 213 244 239 230 218 217 226 226 238 242 240 237 223 210 202 201 201 204 206
261 250 232 241 240 240 243 251 238 218 208 247 297 313 175 192 182 205 216 189 213 228 189 200 212 190 172 169 144 196 233 204 270 140 226 239 248 221 211 215 219 220 203 212 228 232 234 231 226 219 211 207 208 208
259 236 224 238 241 240 228 229 269 229 233 270 223 247 185 165 188 196 210 228 204 194 180 186 181 167 154 169 169 187 210 226 91 215 228 210 245 279 220 208 210 214 222 215 204 208 209 215 212 212 213 215 217 215
243 237 234 238 241 234 227 223 197 243 232 237 237 278 231 228 231 195 197 225 240 189 175 187 169 166 168 172 169 210 204 197 224 240 238 229 265 312 293 230 219 216 212 218 209 209 213 219 227 231 223 221 224 219
240 238 236 240 241 234 226 215 210 236 234 258 236 247 228 237 262 254 276 262 243 218 208 209 209 209 153 187 188 189 204 239 213 203 256 223 331 326 289 247 221 225 226 230 232 233 237 240 245 245 235 230 230 227
242 244 242 243 242 236 219 215 227 197 219 235 234 247 231 214 267 264 260 255 261 246 232 211 204 174 210 182 187 189 203 222 244 238 287 326 336 329 326 261 224 210 211 220 229 237 244 247 250 253 251 243 238 228
250 250 250 247 241 221 200 210 213 215 219 225 242 238 256 276 262 265 269 262 282 214 227 162 179 190 125 188 205 190 211 233 260 309 319 333 344 336 328 296 247 224 216 216 220 224 231 234 239 243 242 240 236 234
244 251 246 241 216 225 224 225 186 219 236 232 247 240 230 237 253 271 268 272 280 202 226 189 133 185 190 187 197 206 238 297 336 328 331 334 352 1 343 317 262 237 227 223 228 229 228 223 228 235 238 237 228 216
251 250 246 236 229 219 204 192 180 215 223 231 245 248 254 260 267 276 270 281 274 253 193 92 153 175 160 201 180 202 83 352 331 330 338 356 357 352 357 352 300 255 229 236 223 221 226 223 221 221 218 214 211 207
257 251 246 237 224 180 186 158 180 204 198 221 221 222 221 245 283 259 258 283 287 187 240 177 204 190 161 157 167 133 23 5 348 337 337 359 359 355 2 359 357 328 246 220 208 209 209 205 204 205 205 200 197 195
279 228 197 177 141 142 144 160 169 203 198 199 214 204 243 240 254 230 249 292 329 246 275 211 195 184 154 144 164 296 332 339 323 318 318 337 345 342 348 349 5 2 310 204 190 186 181 187 184 185 183 182 190 191
122 121 128 125 111 100 96 165 157 168 179 217 162 200 211 224 256 246 180 165 257 262 249 232 177 204 257 267 277 284 295 309 307 314 323 338 340 337 350 355 16 18 9 180 178 183 177 168 169 173 174 176 184 185
134 134 112 90 101 81 117 148 146 169 159 202 156 199 285 271 203 156 253 222 234 237 242 259 268 274 278 285 285 286 305 294 281 318 326 349 356 338 338 351 52 45 55 176 170 171 170 163 162 162 168 173 175 174
137 56 48 60 72 117 131 118 136 125 97 127 143 223 242 207 131 204 256 266 253 267 271 269 271 275 282 282 294 315 337 332 314 317 308 335 353 354 351 348 73 93 117 150 164 169 163 161 163 166 168 167 168 166
110 3 106 37 99 110 109 108 89 79 110 231 70 325 286 140 212 223 206 255 245 252 271 284 273 261 265 278 283 290 295 290 287 299 302 307 333 351 349 288 93 104 62 139 169 169 162 161 161 164 169 171 169 165
107 222 123 158 146 130 164 147 186 167 155 169 203 241 201 176 268 240 213 233 228 242 252 255 267 267 262 272 283 286 295 277 262 275 291 294 327 345 337 304 197 87 97 24 186 185 175 170 169 170 171 173 172 168
123 212 150 152 144 140 89 73 142 151 181 181 188 183 148 224 250 250 214 203 220 223 187 172 240 305 317 307 286 281 266 264 240 242 253 261 273 310 324 324 346 217 107 36 234 200 190 182 180 176 174 174 177 176
132 164 172 173 165 173 151 166 181 195 198 186 152 187 189 210 242 239 249 203 181 191 196 265 300 297 289 301 305 277 252 248 231 218 224 236 244 263 313 312 269 247 198 174 215 199 192 195 188 181 179 176 175 177
151 161 132 114 154 199 221 198 207 213 186 171 180 210 230 225 238 254 279 275 224 236 265 282 288 295 285 275 283 282 248 238 228 210 209 231 233 237 268 292 228 212 224 210 180 184 187 189 192 183 179 177 176 177
166 167 112 135 172 239 249 207 227 232 214 218 234 258 261 260 268 275 274 272 269 269 272 278 282 283 280 287 286 267 253 243 233 225 209 219 231 219 231 231 219 192 197 204 192 180 177 180 186 182 181 177 175 177
152 180 242 213 237 247 264 276 274 271 263 257 256 255 264 283 286 285 283 280 275 272 269 268 268 268 266 263 256 257 258 239 232 228 218 224 236 223 229 245 236 216 205 207 203 194 187 183 184 181 180 180 179 181
176 204 239 269 289 303 310 269 260 250 242 236 252 235 268 254 264 273 268 306 286 259 254 253 251 258 259 260 260 257 254 246 236 232 225 220 225 209 226 234 246 233 210 210 213 206 197 194 186 187 188 185 186 185
197 215 230 272 281 327 344 325 290 308 274 270 258 242 228 239 258 283 299 345 344 307 272 265 264 256 251 260 259 253 236 223 221 229 219 220 211 206 220 221 231 233 214 205 207 206 204 201 199 193 191 188 188 189
Wind_Speed_850mb
66 67 70 71 65 65 40 28 27 25 26 28 33 34 38 44 49 51 64 61 63 24 36 40 51 45 36 21 6 8 19 15 10 12 13 10 12 31 19 10 15 17 15 9 5 7 11 22 16 18 15 5 19 42
67 68 66 68 59 58 46 29 26 24 27 35 33 35 38 43 47 45 59 61 64 49 25 22 47 63 67 67 35 36 11 14 14 6 6 6 8 9 26 17 2 9 15 15 18 13 5 54 6 31 8 12 17 39
67 67 66 64 59 53 44 32 32 30 30 34 38 39 40 44 45 51 52 49 52 43 27 43 51 68 58 68 67 19 23 26 17 21 7 8 9 6 20 28 9 7 5 9 10 13 14 39 51 36 15 11 17 29
68 66 63 62 55 49 42 37 32 27 31 36 40 37 40 42 45 43 42 41 44 11 6 18 17 32 30 42 67 76 63 29 30 20 7 3 5 10 11 7 23 10 19 12 6 4 5 15 57 43 42 21 21 31
67 64 60 59 52 46 42 38 34 30 35 40 39 34 39 41 33 34 35 38 40 29 5 10 28 40 36 41 50 66 59 47 24 6 5 8 7 3 0 3 6 13 14 23 17 24 20 25 75 56 56 48 35 41
62 59 56 56 49 42 37 35 33 32 40 39 34 35 36 32 24 22 11 35 45 46 8 5 14 20 34 35 49 67 69 53 33 18 8 12 13 12 6 10 8 48 37 53 15 53 63 53 34 67 63 62 44 43
54 54 54 51 43 37 33 33 33 37 35 33 31 31 33 24 24 26 12 3 19 55 9 5 8 11 23 26 45 46 55 35 27 7 11 6 18 10 4 8 6 37 62 48 53 54 43 64 42 39 45 66 60 47
49 47 47 46 34 31 31 31 31 29 29 29 27 26 21 19 22 33 40 31 19 38 16 6 7 5 17 13 13 35 25 36 22 15 7 5 10 8 12 9 57 59 40 52 55 57 45 60 62 54 49 62 70 55
43 44 45 39 26 25 28 28 27 27 25 20 27 26 15 15 15 26 20 26 31 17 6 5 2 6 14 10 12 22 27 11 18 10 9 13 10 12 17 19 31 49 51 37 51 60 37 31 51 52 44 49 54 76
41 40 39 25 25 26 23 23 22 19 16 22 24 12 11 13 21 14 18 8 10 15 16 6 9 5 11 5 4 3 3 8 9 9 16 7 8 62 32 52 56 55 52 68 33 42 52 31 37 52 46 44 48 53
34 30 20 22 22 19 18 16 16 13 13 9 7 12 12 13 18 11 9 8 9 7 16 15 41 9 20 6 4 4 3 2 8 9 14 9 11 39 55 48 43 69 74 82 73 71 65 74 66 47 48 42 43 44
29 28 25 22 18 16 13 9 11 12 6 6 14 24 17 12 8 4 6 5 7 9 8 8 12 28 17 14 6 7 5 6 7 8 6 7 7 32 63 82 88 58 45 69 76 78 70 60 64 59 52 47 46 40
25 23 20 19 18 16 15 12 9 7 6 12 7 7 10 10 9 11 12 6 5 8 15 12 7 18 11 10 6 9 9 11 1 7 8 9 11 31 52 80 95 110 85 67 63 60 60 57 50 54 55 53 53 49
23 22 23 22 18 16 17 12 9 3 5 4 4 8 6 4 8 8 8 6 5 8 27 25 12 6 8 9 7 8 7 4 7 9 10 7 22 30 19 48 70 95 119 94 82 75 68 65 59 54 54 51 47 47
27 27 25 25 23 20 19 15 14 9 4 4 5 8 8 8 12 14 16 13 17 11 20 14 10 16 7 8 7 6 6 10 11 7 5 2 27 27 12 16 29 62 72 81 77 63 58 61 62 58 55 56 59 56
27 26 29 27 25 23 20 20 11 10 6 7 11 6 11 4 6 5 17 30 27 30 28 18 8 10 9 6 10 11 7 10 6 7 14 30 37 33 20 16 23 24 39 56 69 86 101 102 98 99 99 94 76 58
27 36 34 34 28 22 23 22 12 10 13 9 9 22 19 17 15 18 18 21 17 12 6 6 13 10 7 6 7 7 8 5 4 19 31 33 29 30 23 15 20 26 31 38 48 54 63 68 65 68 77 87 94 95
42 39 33 32 27 36 40 24 19 12 14 19 8 8 19 24 16 23 24 25 14 10 6 8 10 8 8 9 6 5 7 11 11 19 30 33 31 29 20 18 14 24 30 34 39 41 42 49 51 60 68 73 71 77
45 43 45 45 45 47 20 30 21 11 22 11 21 28 21 21 26 29 38 38 28 26 9 7 5 6 5 5 4 4 0 11 20 30 26 22 27 36 27 17 10 13 21 30 38 36 32 38 48 51 55 59 64 76
63 68 67 66 60 23 15 8 31 9 7 16 18 14 11 11 9 11 16 12 6 3 2 5 6 5 13 7 11 6 7 14 22 31 34 31 33 34 34 26 12 6 4 13 25 28 26 33 38 41 50 56 53 69
34 28 33 62 46 18 12 18 15 15 10 12 8 13 7 8 11 7 6 6 4 3 3 5 5 11 10 12 4 4 9 20 22 23 30 39 38 32 27 25 13 10 5 9 15 21 22 27 33 37 43 49 54 62
52 53 53 28 10 9 8 11 7 18 12 5 9 9 4 3 4 4 5 3 5 7 8 5 8 12 14 13 7 12 15 18 19 19 17 24 32 29 23 19 13 7 3 4 12 19 25 27 30 36 40 45 54 64
34 23 11 9 10 8 8 19 6 13 7 6 9 3 3 2 2 5 4 9 13 17 18 21 22 21 24 26 21 15 13 15 12 11 11 17 24 18 13 11 7 7 1 4 11 19 26 31 32 34 40 49 59 65
22 5 7 7 8 5 9 3 4 5 4 4 5 3 4 3 3 3 5 6 16 21 23 21 19 23 24 24 21 15 15 15 14 15 12 14 21 19 8 6 6 7 3 10 15 22 29 35 40 44 48 57 64 70
7 2 4 5 4 6 6 4 2 3 1 2 5 6 4 5 3 6 7 8 22 24 18 18 18 18 22 26 28 25 19 21 19 20 12 13 19 25 11 3 3 14 9 5 16 24 32 38 42 47 54 60 68 73
5 2 5 6 4 7 9 7 8 9 5 7 4 3 5 2 2 9 6 14 30 23 16 14 14 15 18 21 25 23 17 14 17 20 13 14 16 24 20 6 3 6 13 3 8 23 31 39 44 49 54 59 64 69
6 5 5 3 7 8 6 3 8 4 8 9 7 8 4 2 8 7 10 22 21 20 11 6 1 6 11 15 21 23 22 21 18 17 15 18 18 17 23 16 3 4 6 4 6 18 28 38 45 50 56 57 59 63
3 8 8 12 6 6 7 7 10 11 7 10 11 10 10 11 8 8 8 8 25 18 9 5 10 18 23 22 25 25 26 29 25 27 25 25 24 16 11 10 13 14 5 6 5 16 25 32 42 47 51 55 60 61
3 7 10 4 5 2 7 10 8 10 12 20 9 7 8 13 15 11 7 11 27 27 30 34 38 36 30 24 30 33 33 34 34 36 34 32 35 25 12 7 6 17 25 14 13 15 22 29 38 43 46 51 55 59
5 9 4 3 4 6 6 14 5 7 14 20 13 12 20 34 39 34 38 42 49 57 60 59 54 47 39 34 36 35 34 38 43 46 42 38 41 35 20 7 5 14 26 29 27 27 32 37 39 39 41 49 55 57
6 7 2 4 5 7 7 10 16 20 23 24 33 36 39 36 55 58 55 55 59 60 58 54 49 40 36 40 43 40 37 38 45 49 47 42 37 35 31 20 9 10 23 32 36 37 39 41 42 46 50 57 62 62
9 7 3 4 6 6 18 5 4 6 6 8 9 12 8 8 11 11 11 18 19 28 34 32 35 33 35 38 42 43 40 39 42 49 49 46 43 35 31 24 16 15 21 31 34 35 38 44 48 49 53 58 61 62
7 7 7 6 4 6 5 8 4 6 5 5 7 5 7 8 9 6 8 13 21 17 18 23 26 28 31 34 39 36 35 37 32 31 43 39 43 42 35 28 16 13 21 31 40 43 46 49 53 54 55 56 59 58
Wind_Direction_850mb
301 302 302 305 301 293 268 251 259 261 266 272 270 271 270 263 257 250 249 243 228 232 250 232 234 235 243 201 238 292 203 176 179 170 195 176 190 213 210 171 170 160 151 174 121 123 238 154 115 169 216 204 177 178
299 299 300 301 298 293 284 260 258 263 273 269 279 281 276 274 262 253 252 248 241 230 248 242 253 247 244 234 228 235 264 332 171 175 214 216 223 164 198 212 41 185 191 174 181 190 233 184 184 191 186 181 187 182
295 295 294 298 296 291 297 259 257 255 269 281 282 282 281 273 263 254 246 241 236 223 248 246 252 258 261 241 229 220 211 202 250 208 187 225 222 152 188 214 136 241 176 164 125 209 221 200 214 206 212 200 195 184
291 290 289 294 292 285 279 267 265 275 278 277 280 281 283 273 265 250 243 240 239 229 240 260 268 247 258 237 234 231 233 228 215 286 227 232 237 202 218 163 204 174 144 160 268 280 66 236 219 215 213 207 184 176
285 286 286 290 290 280 273 263 261 271 274 274 279 278 278 274 261 246 246 242 239 222 272 279 277 256 258 229 220 222 213 215 224 273 214 219 245 222 219 101 207 189 171 188 208 179 175 222 223 216 214 212 194 181
281 283 282 286 283 274 265 260 260 269 268 273 277 277 276 257 252 246 246 247 228 227 243 253 267 264 230 229 219 219 220 226 218 188 212 227 246 216 216 231 248 196 202 200 184 199 211 225 233 227 215 210 197 190
277 278 280 282 276 263 258 260 265 266 269 275 274 276 261 248 234 213 211 186 208 209 222 249 263 258 229 197 213 209 223 224 207 217 228 215 200 190 258 231 252 210 213 210 203 196 208 220 221 227 223 216 210 201
274 274 278 280 264 251 255 263 266 266 266 273 270 273 262 245 240 244 237 236 267 186 189 223 253 289 196 189 196 191 189 206 215 208 221 185 199 180 236 198 244 260 265 233 214 210 223 229 227 225 226 211 201 193
270 272 277 265 246 253 257 260 260 259 258 273 269 264 236 230 225 246 260 248 250 236 283 189 218 243 189 209 218 179 192 192 196 199 197 198 190 210 223 188 212 241 234 244 227 224 219 218 218 208 209 194 199 207
270 264 272 244 249 253 256 260 263 259 256 271 255 211 209 202 206 187 176 206 215 192 210 208 193 258 171 203 296 128 209 194 196 214 148 200 249 238 203 211 220 232 247 241 222 221 214 203 202 200 200 197 202 204
266 273 228 243 251 253 256 257 250 237 248 266 227 209 199 179 172 188 194 180 199 207 207 216 193 185 207 147 210 271 204 162 218 195 185 213 244 239 230 218 217 226 226 238 242 240 237 223 210 202 201 201 204 206
261 250 232 241 240 240 243 251 238 218 208 247 297 313 175 192 182 205 216 189 213 228 189 200 212 190 172 169 144 196 233 204 270 140 226 239 248 221 211 215 219 220 203 212 228 232 234 231 226 219 211 207 208 208
259 236 224 238 241 240 228 229 269 229 233 270 223 247 185 165 188 196 210 228 204 194 180 186 181 167 154 169 169 187 210 226 91 215 228 210 245 279 220 208 210 214 222 215 204 208 209 215 212 212 213 215 217 215
243 237 234 238 241 234 227 223 197 243 232 237 237 278 231 228 231 195 197 225 240 189 175 187 169 166 168 172 169 210 204 197 224 240 238 229 265 312 293 230 219 216 212 218 209 209 213 219 227 231 223 221 224 219
240 238 236 240 241 234 226 215 210 236 234 258 236 247 228 237 262 254 276 262 243 218 208 209 209 209 153 187 188 189 204 239 213 203 256 223 331 326 289 247 221 225 226 230 232 233 237 240 245 245 235 230 230 227
242 244 242 243 242 236 219 215 227 197 219 235 234 247 231 214 267 264 260 255 261 246 232 211 204 174 210 182 187 189 203 222 244 238 287 326 336 329 326 261 224 210 211 220 229 237 244 247 250 253 251 243 238 228
250 250 250 247 241 221 200 210 213 215 219 225 242 238 256 276 262 265 269 262 282 214 227 162 179 190 125 188 205 190 211 233 260 309 319 333 344 336 328 296 247 224 216 216 220 224 231 234 239 243 242 240 236 234
244 251 246 241 216 225 224 225 186 219 236 232 247 240 230 237 253 271 268 272 280 202 226 189 133 185 190 187 197 206 238 297 336 328 331 334 352 1 343 317 262 237 227 223 228 229 228 223 228 235 238 237 228 216
251 250 246 236 229 219 204 192 180 215 223 231 245 248 254 260 267 276 270 281 274 253 193 92 153 175 160 201 180 202 83 352 331 330 338 356 357 352 357 352 300 255 229 236 223 221 226 223 221 221 218 214 211 207
257 251 246 237 224 180 186 158 180 204 198 221 221 222 221 245 283 259 258 283 287 187 240 177 204 190 161 157 167 133 23 5 348 337 337 359 359 355 2 359 357 328 246 220 208 209 209 205 204 205 205 200 197 195
279 228 197 177 141 142 144 160 169 203 198 199 214 204 243 240 254 230 249 292 329 246 275 211 195 184 154 144 164 296 332 339 323 318 318 337 345 342 348 349 5 2 310 204 190 186 181 187 184 185 183 182 190 191
122 121 128 125 111 100 96 165 157 168 179 217 162 200 211 224 256 246 180 165 257 262 249 232 177 204 257 267 277 284 295 309 307 314 323 338 340 337 350 355 16 18 9 180 178 183 177 168 169 173 174 176 184 185
134 134 112 90 101 81 117 148 146 169 159 202 156 199 285 271 203 156 253 222 234 237 242 259 268 274 278 285 285 286 305 294 281 318 326 349 356 338 338 351 52 45 55 176 170 171 170 163 162 162 168 173 175 174
137 56 48 60 72 117 131 118 136 125 97 127 143 223 242 207 131 204 256 266 253 267 271 269 271 275 282 282 294 315 337 332 314 317 308 335 353 354 351 348 73 93 117 150 164 169 163 161 163 166 168 167 168 166
110 3 106 37 99 110 109 108 89 79 110 231 70 325 286 140 212 223 206 255 245 252 271 284 273 261 265 278 283 290 295 290 287 299 302 307 333 351 349 288 93 104 62 139 169 169 162 161 161 164 169 171 169 165
107 222 123 158 146 130 164 147 186 167 155 169 203 241 201 176 268 240 213 233 228 242 252 255 267 267 262 272 283 286 295 277 262 275 291 294 327 345 337 304 197 87 97 24 186 185 175 170 169 170 171 173 172 168
123 212 150 152 144 140 89 73 142 151 181 181 188 183 148 224 250 250 214 203 220 223 187 172 240 305 317 307 286 281 266 264 240 242 253 261 273 310 324 324 346 217 107 36 234 200 190 182 180 176 174 174 177 176
132 164 172 173 165 173 151 166 181 195 198 186 152 187 189 210 242 239 249 203 181 191 196 265 300 297 289 301 305 277 252 248 231 218 224 236 244 263 313 312 269 247 198 174 215 199 192 195 188 181 179 176 175 177
151 161 132 114 154 199 221 198 207 213 186 171 180 210 230 225 238 254 279 275 224 236 265 282 288 295 285 275 283 282 248 238 228 210 209 231 233 237 268 292 228 212 224 210 180 184 187 189 192 183 179 177 176 177
166 167 112 135 172 239 249 207 227 232 214 218 234 258 261 260 268 275 274 272 269 269 272 278 282 283 280 287 286 267 253 243 233 225 209 219 231 219 231 231 219 192 197 204 192 180 177 180 186 182 181 177 175 177
152 180 242 213 237 247 264 276 274 271 263 257 256 255 264 283 286 285 283 280 275 272 269 268 268 268 266 263 256 257 258 239 232 228 218 224 236 223 229 245 236 216 205 207 203 194 187 183 184 181 180 180 179 181
176 204 239 269 289 303 310 269 260 250 242 236 252 235 268 254 264 273 268 306 286 259 254 253 251 258 259 260 260 257 254 246 236 232 225 220 225 209 226 234 246 233 210 210 213 206 197 194 186 187 188 185 186 185
197 215 230 272 281 327 344 325 290 308 274 270 258 242 228 239 258 283 299 345 344 307 272 265 264 256 251 260 259 253 236 223 221 229 219 220 211 206 220 221 231 233 214 205 207 206 204 201 199 193 191 188 188 189